Regional Weather Roundup
Issued by NWS

Home | Current Version | Previous Version | Graphics & Text | Print | Product List | Glossary On
Versions: 1 2 3 4 5 6 7 8 9 10 11 12 13 14 15 16 17 18 19 20 21 22 23 24 25 26 27
000
ASUS45 KBOI 221310
RWRID

IDAHO REGIONAL WEATHER ROUNDUP
NATIONAL WEATHER SERVICE BOISE ID
700 AM MDT THU JUN 22 2017

NOTE: "FAIR" INDICATES FEW OR NO CLOUDS BELOW 12000 FEET
WITH NO SIGNIFICANT WEATHER AND/OR OBSTRUCTIONS TO VISIBILITY

IDZ012-014-221400-
SOUTHWEST IDAHO


CITY           SKY/WX    TMP DP  RH WIND       PRES   REMARKS
BOISE          CLEAR     57  34  41 NW5       30.10R
CALDWELL       PTCLDY    57  38  48 W14       30.11R
MOUNTAIN HOME  CLEAR     58  32  37 W13       30.08R
$$

IDZ016-017-221400-
SOUTHCENTRAL IDAHO


CITY           SKY/WX    TMP DP  RH WIND       PRES   REMARKS
BURLEY         CLEAR     56  32  40 W10       30.07R
JEROME         CLEAR     54  32  43 SW8       30.07R
TWIN FALLS     CLEAR     56  29  35 SW14      30.08R
$$

IDZ019>023-221400-
SOUTHEAST IDAHO


CITY           SKY/WX    TMP DP  RH WIND       PRES   REMARKS
IDAHO FALLS    SUNNY     51  44  77 N5        30.10R
POCATELLO      SUNNY     55  39  54 SW9       30.08R
REXBURG        SUNNY     49  44  83 N5        30.09R
$$

IDZ006-010-011-018-031-032-221400-
CENTRAL IDAHO MOUNTAINS


CITY           SKY/WX    TMP DP  RH WIND       PRES   REMARKS
MCCALL         CLEAR     45  35  68 CALM      30.18R
HAILEY         CLEAR     54  32  43 NW12      30.12R
STANLEY          N/A     37  33  85 CALM      30.24R
SALMON         MOSUNNY   45  36  70 CALM      30.16R
CHALLIS        CLEAR     52  34  50 N7        30.19R
$$

IDZ002-004-006-007-026-221400-
NORTHERN IDAHO


CITY           SKY/WX    TMP DP  RH WIND       PRES   REMARKS
LEWISTON       CLEAR     56  35  45 S3        30.17R
LOWELL           N/A     47  42  83 CALM      30.20R
COEUR D`ALENE  CLEAR     58  31  35 NW8       30.16R
MULLAN PASS    CLEAR     41  26  55 N3        30.19R
$$




USA.gov is the U.S. government's official web portal to all federal, state and local government web resources and services.